owner,sensor,date,latitude,longitude,vertical_datum,wind_speed,wind_to_direction,wind_speed_of_gust,qcFlag 
TABS,ioos:station:wmo:42043:1,2011-07-01T00:00:00Z,28.9818,-94.9186,4.0,5.564530528,139.9574302,6.91,'11111222,11111222,11111222' 
TABS,ioos:station:wmo:42043:1,2011-07-01T00:30:00Z,28.9818,-94.9186,4.0,5.474422344,143.8421096,6.75,'11111222,11111222,11111222' 
TABS,ioos:station:wmo:42043:1,2011-07-01T01:00:00Z,28.9818,-94.9186,4.0,5.017738534,153.486287,6.48,'11111222,11111222,11111222' 
TABS,ioos:station:wmo:42043:1,2011-07-01T01:30:00Z,28.9818,-94.9186,4.0,4.659624448,149.1419654,6.1,'11111222,11111222,11111222' 
TABS,ioos:station:wmo:42043:1,2011-07-01T02:00:00Z,28.9818,-94.9186,4.0,4.633659461,144.663854,5.89,'11111222,11111222,11111222' 
TABS,ioos:station:wmo:42043:1,2011-07-01T02:30:00Z,28.9818,-94.9186,4.0,4.777447017,154.7225473,6.24,'11111222,11111222,11111222' 
TABS,ioos:station:wmo:42043:1,2011-07-01T03:00:00Z,28.9818,-94.9186,4.0,5.242184659,154.46174,6.68,'11111222,11111222,11111222' 
TABS,ioos:station:wmo:42043:1,2011-07-01T03:30:00Z,28.9818,-94.9186,4.0,5.183222936,153.2869155,6.49,'11111222,11111222,11111222' 
TABS,ioos:station:wmo:42043:1,2011-07-01T04:00:00Z,28.9818,-94.9186,4.0,5.161521094,159.3532679,6.33,'11111222,11111222,11111222' 
TABS,ioos:station:wmo:42043:1,2011-07-01T04:30:00Z,28.9818,-94.9186,4.0,5.592065808,162.731797,7.18,'11111222,11111222,11111222' 
TABS,ioos:station:wmo:42043:1,2011-07-01T05:00:00Z,28.9818,-94.9186,4.0,5.146124756,168.9086557,6.58,'11111222,11111222,11111222' 
TABS,ioos:station:wmo:42043:1,2011-07-01T05:30:00Z,28.9818,-94.9186,4.0,5.022927433,165.8256716,6.34,'11111222,11111222,11111222' 
TABS,ioos:station:wmo:42043:1,2011-07-01T06:00:00Z,28.9818,-94.9186,4.0,5.532494916,162.9736618,6.9,'11111222,11111222,11111222' 
TABS,ioos:station:wmo:42043:1,2011-07-01T06:30:00Z,28.9818,-94.9186,4.0,5.285461191,169.0942374,6.69,'11111222,11111222,11111222' 
TABS,ioos:station:wmo:42043:1,2011-07-01T07:00:00Z,28.9818,-94.9186,4.0,4.927575469,167.4588202,6.39,'11111222,11111222,11111222' 
TABS,ioos:station:wmo:42043:1,2011-07-01T07:30:00Z,28.9818,-94.9186,4.0,4.496276237,172.7171542,5.94,'11111222,11111222,11111222' 
TABS,ioos:station:wmo:42043:1,2011-07-01T08:00:00Z,28.9818,-94.9186,4.0,3.934323322,166.776399,5.11,'11111222,11111222,11111222' 
TABS,ioos:station:wmo:42043:1,2011-07-01T08:30:00Z,28.9818,-94.9186,4.0,4.316028267,164.5471957,5.49,'11111222,11111222,11111222' 
TABS,ioos:station:wmo:42043:1,2011-07-01T09:00:00Z,28.9818,-94.9186,4.0,3.826238362,168.5434681,5.0,'11111222,11111222,11111222' 
TABS,ioos:station:wmo:42043:1,2011-07-01T09:30:00Z,28.9818,-94.9186,4.0,3.415625858,167.143928,4.54,'11111222,11111222,11111222' 
TABS,ioos:station:wmo:42043:1,2011-07-01T10:00:00Z,28.9818,-94.9186,4.0,3.012540456,155.902601,4.2,'11111222,11111222,11111222' 
TABS,ioos:station:wmo:42043:1,2011-07-01T10:30:00Z,28.9818,-94.9186,4.0,3.022995203,137.8158658,4.64,'11111222,11111222,11111222' 
TABS,ioos:station:wmo:42043:1,2011-07-01T11:00:00Z,28.9818,-94.9186,4.0,2.966243416,142.396375,4.01,'11111222,11111222,11111222' 
TABS,ioos:station:wmo:42043:1,2011-07-01T11:30:00Z,28.9818,-94.9186,4.0,3.32701067,144.5426935,4.49,'11111222,11111222,11111222' 
TABS,ioos:station:wmo:42043:1,2011-07-01T12:00:00Z,28.9818,-94.9186,4.0,3.056304959,136.8564694,4.23,'11111222,11111222,11111222' 
TABS,ioos:station:wmo:42043:1,2011-07-01T12:30:00Z,28.9818,-94.9186,4.0,2.751744901,133.380562,3.54,'11111222,11111222,11111222' 
TABS,ioos:station:wmo:42043:1,2011-07-01T13:00:00Z,28.9818,-94.9186,4.0,2.82577423,129.8318598,4.01,'11111222,11111222,11111222' 
TABS,ioos:station:wmo:42043:1,2011-07-01T13:30:00Z,28.9818,-94.9186,4.0,2.540177159,132.9264492,3.58,'11111222,11111222,11111222' 
TABS,ioos:station:wmo:42043:1,2011-07-01T14:00:00Z,28.9818,-94.9186,4.0,2.743902331,134.1143712,3.9,'11111222,11111222,11111222' 
TABS,ioos:station:wmo:42043:1,2011-07-01T14:30:00Z,28.9818,-94.9186,4.0,2.535133133,140.281544,3.2,'11111222,11111222,11111222' 
TABS,ioos:station:wmo:42043:1,2011-07-01T15:00:00Z,28.9818,-94.9186,4.0,2.500079999,113.0785884,3.59,'11111222,11111222,11111222' 
TABS,ioos:station:wmo:42043:1,2011-07-01T15:30:00Z,28.9818,-94.9186,4.0,2.963393325,119.0737364,4.06,'11111222,11111222,11111222' 
TABS,ioos:station:wmo:42043:1,2011-07-01T16:00:00Z,28.9818,-94.9186,4.0,3.584689666,112.989084,4.65,'11111222,11111222,11111222' 
TABS,ioos:station:wmo:42043:1,2011-07-01T16:30:00Z,28.9818,-94.9186,4.0,3.492849839,113.6297434,4.66,'11111222,11111222,11111222' 
TABS,ioos:station:wmo:42043:1,2011-07-01T17:00:00Z,28.9818,-94.9186,4.0,3.654107278,110.1710272,4.84,'11111222,11111222,11111222' 
TABS,ioos:station:wmo:42043:1,2011-07-01T17:30:00Z,28.9818,-94.9186,4.0,3.412477106,132.1497747,4.43,'11111222,11111222,11111222' 
TABS,ioos:station:wmo:42043:1,2011-07-01T18:00:00Z,28.9818,-94.9186,4.0,4.080441153,126.0277101,5.43,'11111222,11111222,11111222' 
TABS,ioos:station:wmo:42043:1,2011-07-01T18:30:00Z,28.9818,-94.9186,4.0,4.21930089,130.6752654,5.39,'11111222,11111222,11111222' 
TABS,ioos:station:wmo:42043:1,2011-07-01T19:00:00Z,28.9818,-94.9186,4.0,4.693239819,132.3232835,6.02,'11111222,11111222,11111222' 
TABS,ioos:station:wmo:42043:1,2011-07-01T19:30:00Z,28.9818,-94.9186,4.0,4.321122539,133.9689179,6.11,'11111222,11111222,11111222' 
TABS,ioos:station:wmo:42043:1,2011-07-01T20:00:00Z,28.9818,-94.9186,4.0,4.474930167,140.440635,5.91,'11111222,11111222,11111222' 
TABS,ioos:station:wmo:42043:1,2011-07-01T20:30:00Z,28.9818,-94.9186,4.0,4.868028348,145.4614594,5.94,'11111222,11111222,11111222' 
TABS,ioos:station:wmo:42043:1,2011-07-01T21:00:00Z,28.9818,-94.9186,4.0,4.840960648,138.9368556,5.92,'11111222,11111222,11111222' 
TABS,ioos:station:wmo:42043:1,2011-07-01T21:30:00Z,28.9818,-94.9186,4.0,5.433691195,153.1994382,7.09,'11111222,11111222,11111222' 
TABS,ioos:station:wmo:42043:1,2011-07-01T22:00:00Z,28.9818,-94.9186,4.0,5.351971599,151.4239934,7.11,'11111222,11111222,11111222' 
TABS,ioos:station:wmo:42043:1,2011-07-01T22:30:00Z,28.9818,-94.9186,4.0,5.306006031,155.0290398,6.48,'11111222,11111222,11111222' 
TABS,ioos:station:wmo:42043:1,2011-07-01T23:00:00Z,28.9818,-94.9186,4.0,5.28531929,165.2015053,6.54,'11111222,11111222,11111222' 
TABS,ioos:station:wmo:42043:1,2011-07-01T23:30:00Z,28.9818,-94.9186,4.0,5.456161654,157.4773316,6.89,'11111222,11111222,11111222' 
TABS,ioos:station:wmo:42043:1,2011-07-02T00:00:00Z,28.9818,-94.9186,4.0,5.669964727,169.2253918,7.1,'11111222,11111222,11111222' 
TABS,ioos:station:wmo:42043:1,2011-07-02T00:30:00Z,28.9818,-94.9186,4.0,6.262850789,167.7393522,7.89,'11111222,11111222,11111222' 
TABS,ioos:station:wmo:42043:1,2011-07-02T01:00:00Z,28.9818,-94.9186,4.0,6.498961455,171.0596878,7.84,'11111222,11111222,11111222' 
TABS,ioos:station:wmo:42043:1,2011-07-02T01:30:00Z,28.9818,-94.9186,4.0,6.350787353,170.3006013,7.75,'11111222,11111222,11111222' 
TABS,ioos:station:wmo:42043:1,2011-07-02T02:00:00Z,28.9818,-94.9186,4.0,5.881853449,165.3260953,7.33,'11111222,11111222,11111222' 
TABS,ioos:station:wmo:42043:1,2011-07-02T02:30:00Z,28.9818,-94.9186,4.0,4.750168418,157.8628766,5.99,'11111222,11111222,11111222' 
TABS,ioos:station:wmo:42043:1,2011-07-02T03:00:00Z,28.9818,-94.9186,4.0,4.300418584,180.7996327,5.54,'11111222,11111222,11111222' 
TABS,ioos:station:wmo:42043:1,2011-07-02T03:30:00Z,28.9818,-94.9186,4.0,3.512506228,191.6620116,4.74,'11111222,11111222,11111222' 
TABS,ioos:station:wmo:42043:1,2011-07-02T04:00:00Z,28.9818,-94.9186,4.0,3.907863867,189.8722747,5.22,'11111222,11111222,11111222' 
TABS,ioos:station:wmo:42043:1,2011-07-02T04:30:00Z,28.9818,-94.9186,4.0,3.803905887,192.7577128,4.76,'11111222,11111222,11111222' 
TABS,ioos:station:wmo:42043:1,2011-07-02T05:00:00Z,28.9818,-94.9186,4.0,4.03744969,173.3152608,5.37,'11111222,11111222,11111222' 
TABS,ioos:station:wmo:42043:1,2011-07-02T05:30:00Z,28.9818,-94.9186,4.0,4.92894512,171.1303392,6.2,'11111222,11111222,11111222' 
TABS,ioos:station:wmo:42043:1,2011-07-02T06:00:00Z,28.9818,-94.9186,4.0,4.844068538,168.6903044,5.79,'11111222,11111222,11111222' 
TABS,ioos:station:wmo:42043:1,2011-07-02T06:30:00Z,28.9818,-94.9186,4.0,5.100686228,176.2907531,6.3,'11111222,11111222,11111222' 
TABS,ioos:station:wmo:42043:1,2011-07-02T07:00:00Z,28.9818,-94.9186,4.0,4.791262882,181.3157456,5.92,'11111222,11111222,11111222' 
TABS,ioos:station:wmo:42043:1,2011-07-02T07:30:00Z,28.9818,-94.9186,4.0,4.603520392,182.2410707,6.0,'11111222,11111222,11111222' 
TABS,ioos:station:wmo:42043:1,2011-07-02T08:00:00Z,28.9818,-94.9186,4.0,4.444603469,184.6460811,5.75,'11111222,11111222,11111222' 
TABS,ioos:station:wmo:42043:1,2011-07-02T08:30:00Z,28.9818,-94.9186,4.0,4.455760317,191.2596802,5.9,'11111222,11111222,11111222' 
TABS,ioos:station:wmo:42043:1,2011-07-02T09:00:00Z,28.9818,-94.9186,4.0,4.105849486,186.4328493,5.3,'11111222,11111222,11111222' 
TABS,ioos:station:wmo:42043:1,2011-07-02T09:30:00Z,28.9818,-94.9186,4.0,3.636880531,185.5226794,4.97,'11111222,11111222,11111222' 
TABS,ioos:station:wmo:42043:1,2011-07-02T10:00:00Z,28.9818,-94.9186,4.0,3.840377586,189.2908203,4.96,'11111222,11111222,11111222' 
TABS,ioos:station:wmo:42043:1,2011-07-02T10:30:00Z,28.9818,-94.9186,4.0,3.73965239,187.2202277,4.9,'11111222,11111222,11111222' 
TABS,ioos:station:wmo:42043:1,2011-07-02T11:00:00Z,28.9818,-94.9186,4.0,3.23261504,182.3049832,4.21,'11111222,11111222,11111222' 
TABS,ioos:station:wmo:42043:1,2011-07-02T11:30:00Z,28.9818,-94.9186,4.0,3.16204048,195.9704586,4.35,'11111222,11111222,11111222' 
TABS,ioos:station:wmo:42043:1,2011-07-02T12:00:00Z,28.9818,-94.9186,4.0,2.822800028,196.2522582,4.11,'11111222,11111222,11111222' 
TABS,ioos:station:wmo:42043:1,2011-07-02T12:30:00Z,28.9818,-94.9186,4.0,2.972709202,199.0446213,4.11,'11111222,11111222,11111222' 
TABS,ioos:station:wmo:42043:1,2011-07-02T13:00:00Z,28.9818,-94.9186,4.0,1.938788281,197.4070828,2.73,'11111222,11111222,11111222' 
TABS,ioos:station:wmo:42043:1,2011-07-02T13:30:00Z,28.9818,-94.9186,4.0,0.524785671,210.9638946,1.28,'11111222,11111222,11111222' 
TABS,ioos:station:wmo:42043:1,2011-07-02T14:00:00Z,28.9818,-94.9186,4.0,0.90509668,225.0001052,1.46,'11111222,11111222,11111222' 
TABS,ioos:station:wmo:42043:1,2011-07-02T14:30:00Z,28.9818,-94.9186,4.0,0.391152144,184.3989055,0.99,'11111222,11111222,11111222' 
TABS,ioos:station:wmo:42043:1,2011-07-02T15:00:00Z,28.9818,-94.9186,4.0,1.112519663,234.8814882,1.75,'11111222,11111222,11111222' 
TABS,ioos:station:wmo:42043:1,2011-07-02T15:30:00Z,28.9818,-94.9186,4.0,1.103449138,223.5313079,1.92,'11111222,11111222,11111222' 
TABS,ioos:station:wmo:42043:1,2011-07-02T16:00:00Z,28.9818,-94.9186,4.0,1.308013761,216.6071997,2.25,'11111222,11111222,11111222' 
TABS,ioos:station:wmo:42043:1,2011-07-02T16:30:00Z,28.9818,-94.9186,4.0,1.072986486,219.3270964,1.95,'11111222,11111222,11111222' 
TABS,ioos:station:wmo:42043:1,2011-07-02T17:00:00Z,28.9818,-94.9186,4.0,1.093846424,194.2905021,1.98,'11111222,11111222,11111222' 
TABS,ioos:station:wmo:42043:1,2011-07-02T17:30:00Z,28.9818,-94.9186,4.0,1.997448372,189.5096674,2.99,'11111222,11111222,11111222' 
TABS,ioos:station:wmo:42043:1,2011-07-02T18:00:00Z,28.9818,-94.9186,4.0,2.267355288,187.0938668,3.08,'11111222,11111222,11111222' 
TABS,ioos:station:wmo:42043:1,2011-07-02T18:30:00Z,28.9818,-94.9186,4.0,3.320376485,179.1373895,4.34,'11111222,11111222,11111222' 
TABS,ioos:station:wmo:42043:1,2011-07-02T19:00:00Z,28.9818,-94.9186,4.0,3.535038897,186.8236569,4.7,'11111222,11111222,11111222' 
TABS,ioos:station:wmo:42043:1,2011-07-02T19:30:00Z,28.9818,-94.9186,4.0,4.46,180.0002105,5.9,'11111222,11111222,11111222' 
TABS,ioos:station:wmo:42043:1,2011-07-02T20:00:00Z,28.9818,-94.9186,4.0,4.490901914,181.1485217,5.73,'11111222,11111222,11111222' 
TABS,ioos:station:wmo:42043:1,2011-07-02T20:30:00Z,28.9818,-94.9186,4.0,5.144958698,171.6181413,6.56,'11111222,11111222,11111222' 
TABS,ioos:station:wmo:42043:1,2011-07-02T21:00:00Z,28.9818,-94.9186,4.0,5.533985905,177.8254714,6.51,'11111222,11111222,11111222' 
TABS,ioos:station:wmo:42043:1,2011-07-02T21:30:00Z,28.9818,-94.9186,4.0,5.53,180.0002105,6.63,'11111222,11111222,11111222' 
TABS,ioos:station:wmo:42043:1,2011-07-02T22:00:00Z,28.9818,-94.9186,4.0,5.454851052,177.583663,6.29,'11111222,11111222,11111222' 
TABS,ioos:station:wmo:42043:1,2011-07-02T22:30:00Z,28.9818,-94.9186,4.0,6.110008183,179.906437,7.42,'11111222,11111222,11111222' 
TABS,ioos:station:wmo:42043:1,2011-07-02T23:00:00Z,28.9818,-94.9186,4.0,5.92710722,184.3544213,7.19,'11111222,11111222,11111222' 
TABS,ioos:station:wmo:42043:1,2011-07-02T23:30:00Z,28.9818,-94.9186,4.0,6.041961602,183.606113,7.24,'11111222,11111222,11111222' 
TABS,ioos:station:wmo:42043:1,2011-07-03T00:00:00Z,28.9818,-94.9186,4.0,6.040827758,180.9487272,7.58,'11111222,11111222,11111222' 
TABS,ioos:station:wmo:42043:1,2011-07-03T00:30:00Z,28.9818,-94.9186,4.0,5.478722479,188.3965081,6.98,'11111222,11111222,11111222' 
TABS,ioos:station:wmo:42043:1,2011-07-03T01:00:00Z,28.9818,-94.9186,4.0,5.38,194.8629916,6.56,'11111222,11111222,11111222' 
TABS,ioos:station:wmo:42043:1,2011-07-03T01:30:00Z,28.9818,-94.9186,4.0,5.349177507,195.2834763,6.95,'11111222,11111222,11111222' 
TABS,ioos:station:wmo:42043:1,2011-07-03T02:00:00Z,28.9818,-94.9186,4.0,5.235274587,203.5292672,6.76,'11111222,11111222,11111222' 
TABS,ioos:station:wmo:42043:1,2011-07-03T02:30:00Z,28.9818,-94.9186,4.0,5.188458345,210.0737529,6.54,'11111222,11111222,11111222' 
TABS,ioos:station:wmo:42043:1,2011-07-03T03:00:00Z,28.9818,-94.9186,4.0,5.895710305,209.1302598,7.24,'11111222,11111222,11111222' 
TABS,ioos:station:wmo:42043:1,2011-07-03T03:30:00Z,28.9818,-94.9186,4.0,5.834320869,212.3282198,7.06,'11111222,11111222,11111222' 
TABS,ioos:station:wmo:42043:1,2011-07-03T04:00:00Z,28.9818,-94.9186,4.0,4.447077692,229.468673,5.7,'11111222,11111222,11111222' 
TABS,ioos:station:wmo:42043:1,2011-07-03T04:30:00Z,28.9818,-94.9186,4.0,5.042786928,226.2053057,6.19,'11111222,11111222,11111222' 
TABS,ioos:station:wmo:42043:1,2011-07-03T05:00:00Z,28.9818,-94.9186,4.0,4.692600558,227.5046532,5.73,'11111222,11111222,11111222' 
TABS,ioos:station:wmo:42043:1,2011-07-03T05:30:00Z,28.9818,-94.9186,4.0,4.271030321,221.6782145,5.32,'11111222,11111222,11111222' 
TABS,ioos:station:wmo:42043:1,2011-07-03T06:00:00Z,28.9818,-94.9186,4.0,4.113003769,220.6618486,5.19,'11111222,11111222,11111222' 
TABS,ioos:station:wmo:42043:1,2011-07-03T06:30:00Z,28.9818,-94.9186,4.0,4.220580529,239.0595973,6.0,'11111222,11111222,11111222' 
TABS,ioos:station:wmo:42043:1,2011-07-03T07:00:00Z,28.9818,-94.9186,4.0,3.966761904,237.3516355,4.93,'11111222,11111222,11111222' 
TABS,ioos:station:wmo:42043:1,2011-07-03T07:30:00Z,28.9818,-94.9186,4.0,4.17560774,241.2253426,5.12,'11111222,11111222,11111222' 
TABS,ioos:station:wmo:42043:1,2011-07-03T08:00:00Z,28.9818,-94.9186,4.0,4.210332528,239.293036,5.17,'11111222,11111222,11111222' 
TABS,ioos:station:wmo:42043:1,2011-07-03T08:30:00Z,28.9818,-94.9186,4.0,4.022996396,245.4735948,5.14,'11111222,11111222,11111222' 
TABS,ioos:station:wmo:42043:1,2011-07-03T09:00:00Z,28.9818,-94.9186,4.0,4.588605453,248.5232592,6.0,'11111222,11111222,11111222' 
TABS,ioos:station:wmo:42043:1,2011-07-03T09:30:00Z,28.9818,-94.9186,4.0,4.412629601,241.2859798,5.55,'11111222,11111222,11111222' 
TABS,ioos:station:wmo:42043:1,2011-07-03T10:00:00Z,28.9818,-94.9186,4.0,4.149036033,263.2175711,5.51,'11111222,11111222,11111222' 
TABS,ioos:station:wmo:42043:1,2011-07-03T10:30:00Z,28.9818,-94.9186,4.0,4.681249833,263.3759829,5.87,'11111222,11111222,11111222' 
TABS,ioos:station:wmo:42043:1,2011-07-03T11:00:00Z,28.9818,-94.9186,4.0,3.842134823,283.240489,5.07,'11111222,11111222,11111222' 
TABS,ioos:station:wmo:42043:1,2011-07-03T11:30:00Z,28.9818,-94.9186,4.0,3.942854296,272.1802534,5.02,'11111222,11111222,11111222' 
TABS,ioos:station:wmo:42043:1,2011-07-03T12:00:00Z,28.9818,-94.9186,4.0,4.337764401,276.4860413,5.73,'11111222,11111222,11111222' 
TABS,ioos:station:wmo:42043:1,2011-07-03T12:30:00Z,28.9818,-94.9186,4.0,4.703668781,291.7108799,6.01,'11111222,11111222,11111222' 
TABS,ioos:station:wmo:42043:1,2011-07-03T13:00:00Z,28.9818,-94.9186,4.0,3.91414103,297.8743758,4.83,'11111222,11111222,11111222' 
TABS,ioos:station:wmo:42043:1,2011-07-03T13:30:00Z,28.9818,-94.9186,4.0,4.087175064,284.886232,5.04,'11111222,11111222,11111222' 
TABS,ioos:station:wmo:42043:1,2011-07-03T14:00:00Z,28.9818,-94.9186,4.0,4.726489183,294.2332159,6.16,'11111222,11111222,11111222' 
TABS,ioos:station:wmo:42043:1,2011-07-03T14:30:00Z,28.9818,-94.9186,4.0,4.110486589,290.5070544,5.73,'11111222,11111222,11111222' 
TABS,ioos:station:wmo:42043:1,2011-07-03T15:00:00Z,28.9818,-94.9186,4.0,3.711711196,282.7631836,4.88,'11111222,11111222,11111222' 
TABS,ioos:station:wmo:42043:1,2011-07-03T15:30:00Z,28.9818,-94.9186,4.0,3.51511024,280.1590322,4.45,'11111222,11111222,11111222' 
TABS,ioos:station:wmo:42043:1,2011-07-03T16:00:00Z,28.9818,-94.9186,4.0,2.602786968,287.6691529,3.79,'11111222,11111222,11111222' 
TABS,ioos:station:wmo:42043:1,2011-07-03T16:30:00Z,28.9818,-94.9186,4.0,2.224095322,276.4539715,3.82,'11111222,11111222,11111222' 
TABS,ioos:station:wmo:42043:1,2011-07-03T17:00:00Z,28.9818,-94.9186,4.0,1.268463638,247.275951,2.45,'11111222,11111222,11111222' 
TABS,ioos:station:wmo:42043:1,2011-07-03T17:30:00Z,28.9818,-94.9186,4.0,1.875553252,209.0250751,3.33,'11111222,11111222,11111222' 
TABS,ioos:station:wmo:42043:1,2011-07-03T18:00:00Z,28.9818,-94.9186,4.0,2.734373786,185.8775893,3.85,'11111222,11111222,11111222' 
TABS,ioos:station:wmo:42043:1,2011-07-03T18:30:00Z,28.9818,-94.9186,4.0,2.660075187,189.9582578,3.54,'11111222,11111222,11111222' 
TABS,ioos:station:wmo:42043:1,2011-07-03T19:00:00Z,28.9818,-94.9186,4.0,2.884614359,185.770082,3.92,'11111222,11111222,11111222' 
TABS,ioos:station:wmo:42043:1,2011-07-03T19:30:00Z,28.9818,-94.9186,4.0,3.235011592,176.8105634,4.08,'11111222,11111222,11111222' 
TABS,ioos:station:wmo:42043:1,2011-07-03T20:00:00Z,28.9818,-94.9186,4.0,3.78297502,177.727766,4.72,'11111222,11111222,11111222' 
TABS,ioos:station:wmo:42043:1,2011-07-03T20:30:00Z,28.9818,-94.9186,4.0,4.178731865,176.2955917,5.29,'11111222,11111222,11111222' 
TABS,ioos:station:wmo:42043:1,2011-07-03T21:00:00Z,28.9818,-94.9186,4.0,4.368352092,183.5438101,5.46,'11111222,11111222,11111222' 
TABS,ioos:station:wmo:42043:1,2011-07-03T21:30:00Z,28.9818,-94.9186,4.0,4.830093167,179.6443415,5.96,'11111222,11111222,11111222' 
TABS,ioos:station:wmo:42043:1,2011-07-03T22:00:00Z,28.9818,-94.9186,4.0,5.227504185,176.9298233,6.21,'11111222,11111222,11111222' 
TABS,ioos:station:wmo:42043:1,2011-07-03T22:30:00Z,28.9818,-94.9186,4.0,5.355380472,177.4316606,6.7,'11111222,11111222,11111222' 
TABS,ioos:station:wmo:42043:1,2011-07-03T23:00:00Z,28.9818,-94.9186,4.0,5.513274889,181.9751399,6.44,'11111222,11111222,11111222' 
TABS,ioos:station:wmo:42043:1,2011-07-03T23:30:00Z,28.9818,-94.9186,4.0,5.875729742,197.9417321,6.8,'11111222,11111222,11111222' 
TABS,ioos:station:wmo:42043:1,2011-07-04T00:00:00Z,28.9818,-94.9186,4.0,6.638712225,191.7332672,7.77,'11111222,11111222,11111222' 
TABS,ioos:station:wmo:42043:1,2011-07-04T00:30:00Z,28.9818,-94.9186,4.0,6.841907629,185.5358041,8.21,'11111222,11111222,11111222' 
TABS,ioos:station:wmo:42043:1,2011-07-04T01:00:00Z,28.9818,-94.9186,4.0,7.156793975,183.926109,8.73,'11111222,11111222,11111222' 
TABS,ioos:station:wmo:42043:1,2011-07-04T01:30:00Z,28.9818,-94.9186,4.0,6.882354248,181.4988826,8.52,'11111222,11111222,11111222' 
TABS,ioos:station:wmo:42043:1,2011-07-04T02:00:00Z,28.9818,-94.9186,4.0,6.625103773,182.2493366,7.93,'11111222,11111222,11111222' 
TABS,ioos:station:wmo:42043:1,2011-07-04T02:30:00Z,28.9818,-94.9186,4.0,6.113100686,195.1730903,7.67,'11111222,11111222,11111222' 
TABS,ioos:station:wmo:42043:1,2011-07-04T03:00:00Z,28.9818,-94.9186,4.0,6.350118109,194.7804786,8.06,'11111222,11111222,11111222' 
TABS,ioos:station:wmo:42043:1,2011-07-04T03:30:00Z,28.9818,-94.9186,4.0,5.677684387,191.6861447,6.94,'11111222,11111222,11111222' 
TABS,ioos:station:wmo:42043:1,2011-07-04T04:00:00Z,28.9818,-94.9186,4.0,5.648805183,194.4546301,7.34,'11111222,11111222,11111222' 
TABS,ioos:station:wmo:42043:1,2011-07-04T04:30:00Z,28.9818,-94.9186,4.0,4.786115335,195.1397994,6.48,'11111222,11111222,11111222' 
TABS,ioos:station:wmo:42043:1,2011-07-04T05:00:00Z,28.9818,-94.9186,4.0,4.609902385,195.6041211,6.5,'11111222,11111222,11111222' 
TABS,ioos:station:wmo:42043:1,2011-07-04T05:30:00Z,28.9818,-94.9186,4.0,4.930436086,190.991051,6.64,'11111222,11111222,11111222' 
TABS,ioos:station:wmo:42043:1,2011-07-04T06:00:00Z,28.9818,-94.9186,4.0,4.816897342,189.5602846,6.38,'11111222,11111222,11111222' 
TABS,ioos:station:wmo:42043:1,2011-07-04T06:30:00Z,28.9818,-94.9186,4.0,5.040605122,193.071475,6.46,'11111222,11111222,11111222' 
TABS,ioos:station:wmo:42043:1,2011-07-04T07:00:00Z,28.9818,-94.9186,4.0,5.408012574,188.3999889,6.62,'11111222,11111222,11111222' 
TABS,ioos:station:wmo:42043:1,2011-07-04T07:30:00Z,28.9818,-94.9186,4.0,5.0686586,195.6816073,6.27,'11111222,11111222,11111222' 
TABS,ioos:station:wmo:42043:1,2011-07-04T08:00:00Z,28.9818,-94.9186,4.0,4.950252519,193.6714856,6.41,'11111222,11111222,11111222' 
TABS,ioos:station:wmo:42043:1,2011-07-04T08:30:00Z,28.9818,-94.9186,4.0,4.836631059,192.0535706,6.41,'11111222,11111222,11111222' 
TABS,ioos:station:wmo:42043:1,2011-07-04T09:00:00Z,28.9818,-94.9186,4.0,4.678546783,205.5793297,5.84,'11111222,11111222,11111222' 
TABS,ioos:station:wmo:42043:1,2011-07-04T09:30:00Z,28.9818,-94.9186,4.0,3.936864234,209.6908675,5.11,'11111222,11111222,11111222' 
TABS,ioos:station:wmo:42043:1,2011-07-04T10:00:00Z,28.9818,-94.9186,4.0,3.415918617,223.932608,4.58,'11111222,11111222,11111222' 
TABS,ioos:station:wmo:42043:1,2011-07-04T10:30:00Z,28.9818,-94.9186,4.0,3.562653505,228.2997799,4.7,'11111222,11111222,11111222' 
TABS,ioos:station:wmo:42043:1,2011-07-04T11:00:00Z,28.9818,-94.9186,4.0,3.147697571,220.8778171,4.62,'11111222,11111222,11111222' 
TABS,ioos:station:wmo:42043:1,2011-07-04T11:30:00Z,28.9818,-94.9186,4.0,3.177184288,227.1683924,4.39,'11111222,11111222,11111222' 
TABS,ioos:station:wmo:42043:1,2011-07-04T12:00:00Z,28.9818,-94.9186,4.0,2.475520147,248.929304,3.76,'11111222,11111222,11111222' 
TABS,ioos:station:wmo:42043:1,2011-07-04T12:30:00Z,28.9818,-94.9186,4.0,2.568501509,229.7375375,3.59,'11111222,11111222,11111222' 
TABS,ioos:station:wmo:42043:1,2011-07-04T13:00:00Z,28.9818,-94.9186,4.0,2.53647393,219.400779,3.63,'11111222,11111222,11111222' 
TABS,ioos:station:wmo:42043:1,2011-07-04T13:30:00Z,28.9818,-94.9186,4.0,2.286678814,204.5477917,3.43,'11111222,11111222,11111222' 
TABS,ioos:station:wmo:42043:1,2011-07-04T14:00:00Z,28.9818,-94.9186,4.0,2.461625479,196.521064,3.52,'11111222,11111222,11111222' 
TABS,ioos:station:wmo:42043:1,2011-07-04T14:30:00Z,28.9818,-94.9186,4.0,2.413503677,203.6974993,3.43,'11111222,11111222,11111222' 
TABS,ioos:station:wmo:42043:1,2011-07-04T15:00:00Z,28.9818,-94.9186,4.0,1.596997182,202.0680584,2.79,'11111222,11111222,11111222' 
TABS,ioos:station:wmo:42043:1,2011-07-04T15:30:00Z,28.9818,-94.9186,4.0,2.287793697,202.080604,3.76,'11111222,11111222,11111222' 
TABS,ioos:station:wmo:42043:1,2011-07-04T16:00:00Z,28.9818,-94.9186,4.0,1.520296024,224.7336158,2.33,'11111222,11111222,11111222' 
TABS,ioos:station:wmo:42043:1,2011-07-04T16:30:00Z,28.9818,-94.9186,4.0,1.449965517,204.4441081,2.47,'11111222,11111222,11111222' 
TABS,ioos:station:wmo:42043:1,2011-07-04T17:00:00Z,28.9818,-94.9186,4.0,1.523187447,172.4552991,2.6,'11111222,11111222,11111222' 
TABS,ioos:station:wmo:42043:1,2011-07-04T17:30:00Z,28.9818,-94.9186,4.0,1.381774222,177.0963984,2.45,'11111222,11111222,11111222' 
TABS,ioos:station:wmo:42043:1,2011-07-04T18:00:00Z,28.9818,-94.9186,4.0,1.894228075,161.8522588,2.97,'11111222,11111222,11111222' 
TABS,ioos:station:wmo:42043:1,2011-07-04T18:30:00Z,28.9818,-94.9186,4.0,2.050560899,159.4442133,3.28,'11111222,11111222,11111222' 
TABS,ioos:station:wmo:42043:1,2011-07-04T19:00:00Z,28.9818,-94.9186,4.0,2.482035455,172.3598216,3.27,'11111222,11111222,11111222' 